Regional Weather Roundup
Issued by NWS Little Rock, AR

Home | Current Version | Previous Version | Text Only | Print | Product List | Glossary Off
Versions: 1 2 3 4 5 6 7 8 9 10 11 12 13 14 15 16 17 18 19 20 21 22 23 24 25 26 27 28 29 30 31 32 33 34 35 36 37 38 39 40 41 42 43 44 45 46 47 48 49 50

000
ASUS44 KLZK 312005
RWRLZK

WEATHER ROUNDUP FOR ARKANSAS
NATIONAL WEATHER SERVICE LITTLE ROCK AR
200 PM CST SAT JAN 31 2015

NOTE: "FAIR" INDICATES FEW OR NO CLOUDS BELOW 12,000 FEET WITH NO
SIGNIFICANT WEATHER AND/OR OBSTRUCTIONS TO VISIBILITY.

ARZ001-003-010-029-312100-
NORTHWEST ARKANSAS

CITY           SKY/WX    TMP DP  RH WIND       PRES   REMARKS
FAYETTEVILLE   CLOUDY    46  26  45 S12       30.13F
FORT SMITH     CLOUDY    51  27  39 SE9       30.15F
HARRISON       CLOUDY    45  23  42 SE13      30.15F
BENTONVILLE    CLOUDY    48  21  34 S9        30.13F
ROGERS         CLOUDY    47  21  35 S13       30.12F
SILOAM SPGS    CLOUDY   N/A N/A N/A S14       30.12F
HIGHFILL       CLOUDY    47  24  40 SE14      30.11F
SPRINGDALE     PTSUNNY   46  25  42 SE8       30.14F
$$

ARZ004-005-016-312100-
NORTH CENTRAL ARKANSAS

CITY           SKY/WX    TMP DP  RH WIND       PRES   REMARKS
BATESVILLE     PTSUNNY   46  27  46 E6        30.24F
FLIPPIN        CLOUDY    46  23  39 S6        30.19F
MTN HOME       CLOUDY    45  24  43 E9        30.18F
$$

ARZ040-041-312100-
WEST CENTRAL ARKANSAS

CITY           SKY/WX    TMP DP  RH WIND       PRES   REMARKS
MENA           CLOUDY    52  30  43 SE3       30.14F
MOUNT IDA      CLOUDY    48  27  44 VRB5      30.15F
$$

ARZ009-017-025-026-028-312100-
NORTHEAST ARKANSAS

CITY           SKY/WX    TMP DP  RH WIND       PRES   REMARKS
CORNING          N/A     45  27  49 SE7       30.28F
JONESBORO      CLOUDY    43  26  51 VRB5      30.27F
NEWPORT        CLOUDY    46  27  48 CALM      30.28F
WALNUT RIDGE   CLOUDY    45  25  45 S6        30.26F
BLYTHEVILLE    CLOUDY    45  25  45 S5        30.29F
$$

ARZ022-023-033-042-044-312100-
CENTRAL ARKANSAS

CITY           SKY/WX    TMP DP  RH WIND       PRES   REMARKS
LITTLE ROCK    CLOUDY    46  26  45 E7        30.23F
N LITTLE ROCK  CLOUDY    45  31  56 E7        30.23F
JACKSONVILLE   CLOUDY    46  28  48 SE6       30.22F
SEARCY         CLOUDY    47  27  45 S7        30.26F
HOT SPRINGS    CLOUDY    49  27  42 E8        30.19F
RUSSELLVILLE   CLOUDY    46  29  51 VRB5      30.19F
CLINTON        FAIR      45  27  49 E5        30.23F
$$

ARZ036-312100-
EAST ARKANSAS

CITY           SKY/WX    TMP DP  RH WIND       PRES   REMARKS
WEST MEMPHIS   CLOUDY    45  26  47 E5        30.26F
$$

ARZ050-053-066-070-073-312100-
SOUTHWEST ARKANSAS

CITY           SKY/WX    TMP DP  RH WIND       PRES   REMARKS
ARKADELPHIA    FAIR      51  31  46 E3        30.21F
CAMDEN         CLOUDY    54  28  37 MISG      30.21F
TEXARKANA      CLOUDY    52  31  44 VRB7      30.16F
EL DORADO      CLOUDY    53  30  41 SE9       30.18F
DE QUEEN       CLOUDY    52  31  44 SE8       30.14F
$$

ARZ056-057-069-312100-
SOUTHEAST ARKANSAS

CITY           SKY/WX    TMP DP  RH WIND       PRES   REMARKS
PINE BLUFF     CLOUDY    47  28  47 E6        30.24F
STUTTGART      CLOUDY    45  27  49 CALM      30.25F
MONTICELLO     PTSUNNY   54  28  36 SE8       30.21F

$$





USA.gov is the U.S. government's official web portal to all federal, state and local government web resources and services.